Location: Mantua Corners
(41.3103°N, 81.2212°W)
Time: 08:14:26
(UTC+00:00)

BlueWalker 3 - Pass Details

Date: 07 October 2024
Orbit: 470 x 482 km, 53.2° (Epoch: 03 November)

Event Time Altitude Azimuth Distance (km) Brightness Sun altitude
Exits shadow 08:48:35 19° 75° (ENE) 1,165 4.5 -30.4°
Drops below altitude 10° 08:49:53 10° 65° (ENE) 1,631 5.4 -30.1°
Sets 08:52:07 0° 58° (ENE) 2,512 6.6 -29.7°
